Time,TemperatureF,DewpointF,PressureIn,WindDirection,WindDirectionDegrees,WindSpeedMPH,WindSpeedGustMPH,Humidity,HourlyPrecipIn,Conditions,Clouds,dailyrainin,SoftwareType,DateUTC
2013-07-26 10:43:00,76.1,66.9,30.07,SSW,203,5.9,7.5,73,0.00,,CLR,0.00,VWS V14.01,2013-07-26 14:43:00,
2013-07-26 10:44:00,76.3,66.4,30.07,WSW,249,5.9,7.5,71,0.00,,CLR,0.00,VWS V14.01,2013-07-26 14:44:00,
2013-07-26 10:46:00,76.5,66.5,30.07,South,184,0.0,5.6,71,0.00,,BKN250,0.00,VWS V14.01,2013-07-26 14:46:00,
2013-07-26 10:47:00,76.5,65.1,30.07,South,184,0.0,0.0,68,0.00,,BKN250,0.00,VWS V14.01,2013-07-26 14:47:00,
2013-07-26 10:53:00,76.5,65.1,30.07,South,184,0.0,0.0,68,0.00,,BKN250,0.00,VWS V14.01,2013-07-26 14:53:00,
2013-07-26 10:58:00,77.0,64.2,30.07,SW,222,3.7,7.5,65,0.00,,BKN250,0.00,VWS V14.01,2013-07-26 14:58:00,
2013-07-26 11:03:00,77.0,63.4,30.07,South,174,9.6,13.2,63,0.00,,BKN250,0.00,VWS V14.01,2013-07-26 15:03:00,
2013-07-26 11:08:00,77.0,63.4,30.07,South,174,9.6,13.2,63,0.00,,BKN250,0.00,VWS V14.01,2013-07-26 15:08:00,
2013-07-26 11:13:00,76.8,64.7,30.07,South,174,6.6,13.2,66,0.00,,BKN250,0.00,VWS V14.01,2013-07-26 15:13:00,
2013-07-26 11:19:00,77.0,62.6,30.07,SSW,203,5.9,7.5,61,0.00,,BKN250,0.00,VWS V14.01,2013-07-26 15:19:00,
2013-07-26 11:24:00,77.5,66.2,30.07,South,179,5.9,7.5,68,0.00,,BKN250,0.00,VWS V14.01,2013-07-26 15:24:00,
2013-07-26 11:29:00,77.7,66.3,30.07,SSW,203,3.7,5.6,68,0.00,,BKN250,0.00,VWS V14.01,2013-07-26 15:29:00,
2013-07-26 11:34:00,77.9,63.5,30.07,WSW,250,8.9,11.3,61,0.00,,BKN250,0.00,VWS V14.01,2013-07-26 15:34:00,
2013-07-26 11:39:00,77.9,63.5,30.07,SSE,159,8.1,11.3,61,0.00,,BKN250,0.00,VWS V14.01,2013-07-26 15:39:00,
2013-07-26 11:44:00,78.3,66.1,30.07,SSW,196,0.0,5.6,66,0.00,,BKN250,0.00,VWS V14.01,2013-07-26 15:44:00,
2013-07-26 11:50:00,78.6,64.9,30.07,SSW,204,4.4,8.5,63,0.00,,BKN250,0.00,VWS V14.01,2013-07-26 15:50:00,
2013-07-26 11:55:00,78.3,62.2,30.07,SW,233,4.4,5.6,58,0.00,,BKN250,0.00,VWS V14.01,2013-07-26 15:55:00,
2013-07-26 12:00:00,77.5,62.3,30.07,South,173,3.7,5.6,60,0.00,,BKN250,0.00,VWS V14.01,2013-07-26 16:00:00,
2013-07-26 12:05:00,77.5,62.3,30.07,South,173,3.7,5.6,60,0.00,,BKN250,0.00,VWS V14.01,2013-07-26 16:05:00,
2013-07-26 12:11:00,77.0,62.6,30.07,West,262,3.7,6.6,61,0.00,,BKN250,0.00,VWS V14.01,2013-07-26 16:11:00,
2013-07-26 12:16:00,77.2,63.6,30.07,SW,229,6.6,13.2,63,0.00,,BKN250,0.00,VWS V14.01,2013-07-26 16:16:00,
2013-07-26 12:21:00,77.7,63.3,30.07,South,190,0.0,0.0,61,0.00,,BKN250,0.00,VWS V14.01,2013-07-26 16:21:00,
2013-07-26 12:26:00,78.3,61.3,30.07,NW,311,0.0,12.2,56,0.00,,BKN250,0.00,VWS V14.01,2013-07-26 16:26:00,
2013-07-26 12:31:00,78.4,64.0,30.07,SSW,208,8.9,11.3,61,0.00,,BKN250,0.00,VWS V14.01,2013-07-26 16:31:00,
2013-07-26 12:36:00,79.0,62.9,30.07,SSW,208,4.4,6.6,58,0.00,,BKN250,0.00,VWS V14.01,2013-07-26 16:36:00,
2013-07-26 12:42:00,79.7,62.7,30.07,South,173,13.3,16.9,56,0.00,,BKN250,0.00,VWS V14.01,2013-07-26 16:42:00,
2013-07-26 12:47:00,80.1,64.7,30.07,SSW,192,8.1,10.3,60,0.00,,BKN250,0.00,VWS V14.01,2013-07-26 16:47:00,
2013-07-26 12:52:00,80.1,63.9,30.07,SW,224,3.7,7.5,58,0.00,,BKN250,0.00,VWS V14.01,2013-07-26 16:52:00,
2013-07-26 12:57:00,79.9,64.5,30.07,SW,231,4.4,6.6,60,0.00,,BKN250,0.00,VWS V14.01,2013-07-26 16:57:00,
2013-07-26 13:03:00,79.5,63.4,30.07,West,270,5.2,11.3,58,0.00,,BKN250,0.00,VWS V14.01,2013-07-26 17:03:00,
2013-07-26 13:08:00,79.7,62.7,30.07,SW,223,5.2,8.5,56,0.00,,BKN250,0.00,VWS V14.01,2013-07-26 17:08:00,
2013-07-26 13:13:00,80.1,62.1,30.07,SSW,208,4.4,12.2,54,0.00,,BKN250,0.00,VWS V14.01,2013-07-26 17:13:00,
2013-07-26 13:18:00,80.4,64.2,30.07,SSW,202,6.6,12.2,58,0.00,,BKN250,0.00,VWS V14.01,2013-07-26 17:18:00,
2013-07-26 13:23:00,80.8,61.0,30.07,NW,322,5.2,6.6,51,0.00,,BKN250,0.00,VWS V14.01,2013-07-26 17:23:00,
2013-07-26 13:28:00,81.1,62.2,30.07,SSW,200,5.9,16.0,53,0.00,,BKN250,0.00,VWS V14.01,2013-07-26 17:28:00,
2013-07-26 13:34:00,81.0,61.2,30.07,West,275,4.4,5.6,51,0.00,,BKN250,0.00,VWS V14.01,2013-07-26 17:34:00,
2013-07-26 13:39:00,81.0,61.2,30.07,West,275,4.4,5.6,51,0.00,,BKN250,0.00,VWS V14.01,2013-07-26 17:39:00,
2013-07-26 13:44:00,81.5,61.7,30.07,SW,233,3.7,5.6,51,0.00,,BKN250,0.00,VWS V14.01,2013-07-26 17:44:00,
2013-07-26 13:49:00,81.3,61.5,30.07,WSW,253,4.4,6.6,51,0.00,,BKN250,0.00,VWS V14.01,2013-07-26 17:49:00,
2013-07-26 13:54:00,80.8,62.8,30.07,WSW,243,4.4,5.6,54,0.00,,BKN250,0.00,VWS V14.01,2013-07-26 17:54:00,
2013-07-26 13:59:00,81.3,61.5,30.04,WSW,251,5.2,7.5,51,0.00,,BKN250,0.00,VWS V14.01,2013-07-26 17:59:00,
2013-07-26 14:05:00,81.5,61.7,30.04,SSW,208,4.4,5.6,51,0.00,,BKN250,0.00,VWS V14.01,2013-07-26 18:05:00,
2013-07-26 14:10:00,81.3,61.5,30.04,West,272,4.4,5.6,51,0.00,,BKN250,0.00,VWS V14.01,2013-07-26 18:10:00,
2013-07-26 14:15:00,81.5,62.6,30.04,WNW,299,0.0,0.0,53,0.00,,BKN250,0.00,VWS V14.01,2013-07-26 18:15:00,
2013-07-26 14:20:00,81.9,62.9,30.04,ENE,77,4.4,6.6,53,0.00,,BKN250,0.00,VWS V14.01,2013-07-26 18:20:00,
2013-07-26 14:25:00,81.5,60.7,30.04,WNW,302,3.7,8.5,49,0.00,,BKN250,0.00,VWS V14.01,2013-07-26 18:25:00,
2013-07-26 14:31:00,81.5,62.6,30.04,South,190,5.2,12.2,53,0.00,,BKN250,0.00,VWS V14.01,2013-07-26 18:31:00,
2013-07-26 14:36:00,80.8,61.9,30.04,West,265,0.0,0.0,53,0.00,,BKN250,0.00,VWS V14.01,2013-07-26 18:36:00,
2013-07-26 14:41:00,80.4,61.6,30.04,WSW,240,6.6,10.3,53,0.00,,BKN250,0.00,VWS V14.01,2013-07-26 18:41:00,
2013-07-26 14:46:00,79.9,61.1,30.04,South,188,5.9,13.2,53,0.00,,BKN250,0.00,VWS V14.01,2013-07-26 18:46:00,
2013-07-26 14:51:00,79.3,61.5,30.04,SW,222,8.1,10.3,54,0.00,,BKN250,0.00,VWS V14.01,2013-07-26 18:51:00,
2013-07-26 14:56:00,79.2,60.4,30.04,SSW,209,3.7,5.6,53,0.00,,BKN250,0.00,VWS V14.01,2013-07-26 18:56:00,
2013-07-26 15:02:00,79.2,61.3,30.04,West,279,0.0,6.6,54,0.00,,BKN250,0.00,VWS V14.01,2013-07-26 19:02:00,
2013-07-26 15:07:00,79.3,61.5,30.04,SSW,202,3.7,5.6,54,0.00,,BKN250,0.00,VWS V14.01,2013-07-26 19:07:00,
2013-07-26 15:12:00,79.5,61.6,30.04,WSW,241,4.4,5.6,54,0.00,,BKN250,0.00,VWS V14.01,2013-07-26 19:12:00,
2013-07-26 15:17:00,80.2,62.3,30.04,WSW,245,10.3,15.0,54,0.00,,BKN250,0.00,VWS V14.01,2013-07-26 19:17:00,
2013-07-26 15:22:00,81.0,63.9,30.04,WNW,290,6.6,8.5,56,0.00,,BKN250,0.00,VWS V14.01,2013-07-26 19:22:00,
2013-07-26 15:27:00,82.0,62.1,30.04,West,277,6.6,8.5,51,0.00,,BKN250,0.00,VWS V14.01,2013-07-26 19:27:00,
2013-07-26 15:33:00,82.9,62.0,30.04,West,267,5.9,8.5,49,0.00,,BKN250,0.00,VWS V14.01,2013-07-26 19:33:00,
2013-07-26 15:38:00,82.8,61.8,30.04,NNW,328,0.0,0.0,49,0.00,,BKN250,0.00,VWS V14.01,2013-07-26 19:38:00,
2013-07-26 15:43:00,82.0,62.1,30.01,WNW,296,6.6,11.3,51,0.00,,BKN250,0.00,VWS V14.01,2013-07-26 19:43:00,
2013-07-26 15:48:00,81.9,62.0,30.01,WNW,299,4.4,7.5,51,0.00,,BKN250,0.00,VWS V14.01,2013-07-26 19:48:00,
2013-07-26 15:53:00,81.5,60.7,30.01,SW,231,0.0,0.0,49,0.00,,BKN250,0.00,VWS V14.01,2013-07-26 19:53:00,
2013-07-26 15:58:00,81.3,61.5,30.01,WSW,243,0.0,5.6,51,0.00,,BKN250,0.00,VWS V14.01,2013-07-26 19:58:00,
2013-07-26 16:03:00,81.1,61.3,30.01,WNW,296,5.9,7.5,51,0.00,,BKN250,0.00,VWS V14.01,2013-07-26 20:03:00,
2013-07-26 16:08:00,81.7,61.8,30.01,NW,305,5.9,11.3,51,0.00,,BKN250,0.00,VWS V14.01,2013-07-26 20:08:00,
2013-07-26 16:13:00,82.6,63.6,30.01,WSW,252,0.0,0.0,53,0.00,,BKN250,0.00,VWS V14.01,2013-07-26 20:13:00,
2013-07-26 16:18:00,83.1,63.1,30.01,WSW,245,5.9,7.5,51,0.00,,BKN250,0.00,VWS V14.01,2013-07-26 20:18:00,
2013-07-26 16:24:00,82.6,62.6,30.01,NW,324,6.6,13.2,51,0.00,,BKN250,0.00,VWS V14.01,2013-07-26 20:24:00,
2013-07-26 16:29:00,82.2,63.2,30.01,WNW,298,10.3,13.2,53,0.00,,BKN250,0.00,VWS V14.01,2013-07-26 20:29:00,
2013-07-26 16:34:00,82.2,62.3,30.01,SW,230,3.7,4.7,51,0.00,,BKN250,0.00,VWS V14.01,2013-07-26 20:34:00,
2013-07-26 16:39:00,82.2,63.2,30.01,NW,325,5.9,13.2,53,0.00,,BKN250,0.00,VWS V14.01,2013-07-26 20:39:00,
2013-07-26 16:44:00,82.8,62.8,30.01,South,180,6.6,8.5,51,0.00,,BKN250,0.00,VWS V14.01,2013-07-26 20:44:00,
2013-07-26 16:50:00,83.3,63.3,30.01,WSW,245,0.0,10.3,51,0.00,,BKN250,0.00,VWS V14.01,2013-07-26 20:50:00,
2013-07-26 16:55:00,83.1,63.1,30.01,WNW,299,8.1,10.3,51,0.00,,BKN250,0.00,VWS V14.01,2013-07-26 20:55:00,
2013-07-26 17:00:00,83.1,62.2,30.01,West,265,3.7,8.5,49,0.00,,BKN250,0.00,VWS V14.01,2013-07-26 21:00:00,
2013-07-26 17:05:00,82.8,62.8,30.01,West,273,4.4,8.5,51,0.00,,BKN250,0.00,VWS V14.01,2013-07-26 21:05:00,
2013-07-26 17:10:00,82.4,62.5,30.01,NW,322,6.6,11.3,51,0.00,,BKN250,0.00,VWS V14.01,2013-07-26 21:10:00,
2013-07-26 17:15:00,82.8,61.8,30.01,South,185,5.2,6.6,49,0.00,,BKN250,0.00,VWS V14.01,2013-07-26 21:15:00,
2013-07-26 17:20:00,82.4,61.5,30.01,West,279,0.0,0.0,49,0.00,,BKN250,0.00,VWS V14.01,2013-07-26 21:20:00,
2013-07-26 17:25:00,81.7,61.8,30.01,West,277,6.6,12.2,51,0.00,,BKN250,0.00,VWS V14.01,2013-07-26 21:25:00,
2013-07-26 17:30:00,81.1,61.3,30.01,SSE,167,5.9,8.5,51,0.00,,BKN250,0.00,VWS V14.01,2013-07-26 21:30:00,
2013-07-26 17:36:00,80.4,60.7,30.01,South,189,5.9,10.3,51,0.00,,BKN250,0.00,VWS V14.01,2013-07-26 21:36:00,
2013-07-26 17:41:00,79.9,61.1,30.01,South,184,5.9,7.5,53,0.00,,BKN250,0.00,VWS V14.01,2013-07-26 21:41:00,
2013-07-26 17:46:00,79.3,60.6,30.01,SSW,195,0.0,0.0,53,0.00,,BKN250,0.00,VWS V14.01,2013-07-26 21:46:00,
2013-07-26 17:52:00,79.9,61.1,30.01,SSW,192,0.0,6.6,53,0.00,,BKN250,0.00,VWS V14.01,2013-07-26 21:52:00,
2013-07-26 17:58:00,81.0,61.2,30.01,West,278,4.4,11.3,51,0.00,,BKN250,0.00,VWS V14.01,2013-07-26 21:58:00,
2013-07-26 18:03:00,81.9,62.0,30.01,WNW,295,5.2,7.5,51,0.00,,BKN250,0.00,VWS V14.01,2013-07-26 22:03:00,
2013-07-26 18:08:00,82.0,62.1,30.01,North,5,0.0,0.0,51,0.00,,BKN250,0.00,VWS V14.01,2013-07-26 22:08:00,
2013-07-26 18:13:00,81.9,62.0,30.01,WNW,290,0.0,5.6,51,0.00,,BKN250,0.00,VWS V14.01,2013-07-26 22:13:00,
2013-07-26 18:18:00,81.3,61.5,30.01,SW,221,0.0,7.5,51,0.00,,BKN250,0.00,VWS V14.01,2013-07-26 22:18:00,
2013-07-26 18:23:00,80.8,61.0,30.01,NW,307,4.4,5.6,51,0.00,,BKN250,0.00,VWS V14.01,2013-07-26 22:23:00,
2013-07-26 18:28:00,81.0,62.1,30.01,WNW,295,0.0,7.5,53,0.00,,BKN250,0.00,VWS V14.01,2013-07-26 22:28:00,
2013-07-26 18:33:00,81.1,62.2,30.01,WNW,292,6.6,8.5,53,0.00,,BKN250,0.00,VWS V14.01,2013-07-26 22:33:00,
2013-07-26 18:39:00,81.3,62.4,30.01,West,262,0.0,8.5,53,0.00,,OVC250,0.00,VWS V14.01,2013-07-26 22:39:00,
2013-07-26 18:44:00,81.0,62.1,30.01,NW,307,8.1,10.3,53,0.00,,OVC250,0.00,VWS V14.01,2013-07-26 22:44:00,
2013-07-26 18:49:00,81.0,62.1,30.01,WNW,285,4.4,5.6,53,0.00,,OVC250,0.00,VWS V14.01,2013-07-26 22:49:00,
2013-07-26 18:54:00,81.1,62.2,30.01,West,261,5.9,7.5,53,0.00,,OVC250,0.00,VWS V14.01,2013-07-26 22:54:00,
2013-07-26 18:59:00,80.8,61.9,30.01,WNW,285,5.9,7.5,53,0.00,,OVC250,0.00,VWS V14.01,2013-07-26 22:59:00,
2013-07-26 19:04:00,80.4,62.5,30.01,West,280,0.0,4.7,54,0.00,,OVC250,0.00,VWS V14.01,2013-07-26 23:04:00,
2013-07-26 19:09:00,80.2,62.3,30.01,WSW,244,0.0,0.0,54,0.00,,OVC250,0.00,VWS V14.01,2013-07-26 23:09:00,
2013-07-26 19:14:00,79.7,62.7,30.01,West,271,0.0,0.0,56,0.00,,OVC250,0.00,VWS V14.01,2013-07-26 23:14:00,
2013-07-26 19:19:00,79.3,62.3,30.01,WNW,286,0.0,0.0,56,0.00,,OVC250,0.00,VWS V14.01,2013-07-26 23:19:00,
2013-07-26 19:25:00,79.0,62.0,30.01,SE,146,4.4,6.6,56,0.00,,OVC250,0.00,VWS V14.01,2013-07-26 23:25:00,
2013-07-26 19:30:00,78.4,63.2,30.01,SSE,147,0.0,0.0,60,0.00,,OVC250,0.00,VWS V14.01,2013-07-26 23:30:00,
2013-07-26 19:35:00,77.9,63.5,30.01,SSE,147,0.0,0.0,61,0.00,,OVC250,0.00,VWS V14.01,2013-07-26 23:35:00,
2013-07-26 19:40:00,77.5,63.9,30.01,SSE,147,0.0,0.0,63,0.00,,OVC250,0.00,VWS V14.01,2013-07-26 23:40:00,
2013-07-26 19:46:00,77.4,64.5,30.01,SSE,147,0.0,0.0,65,0.00,,OVC250,0.00,VWS V14.01,2013-07-26 23:46:00,
2013-07-26 19:51:00,77.2,64.3,30.01,WNW,302,4.4,7.5,65,0.00,,OVC250,0.00,VWS V14.01,2013-07-26 23:51:00,
2013-07-26 19:56:00,77.4,65.2,29.98,WNW,302,0.0,0.0,66,0.00,,OVC250,0.00,VWS V14.01,2013-07-26 23:56:00,
2013-07-26 20:01:00,78.1,65.9,29.98,WNW,294,0.0,7.5,66,0.00,,OVC250,0.00,VWS V14.01,2013-07-27 00:01:00,
2013-07-26 20:06:00,78.1,65.2,29.98,WNW,294,0.0,0.0,65,0.00,,OVC250,0.00,VWS V14.01,2013-07-27 00:06:00,
2013-07-26 20:11:00,77.5,64.7,29.98,WNW,294,0.0,0.0,65,0.00,,OVC250,0.00,VWS V14.01,2013-07-27 00:11:00,
2013-07-26 20:16:00,76.8,64.0,29.98,WNW,294,0.0,0.0,65,0.00,,OVC250,0.00,VWS V14.01,2013-07-27 00:16:00,
2013-07-26 20:21:00,76.3,64.2,29.98,WNW,294,0.0,0.0,66,0.00,,OVC250,0.00,VWS V14.01,2013-07-27 00:21:00,
2013-07-26 20:26:00,75.9,64.6,29.98,WNW,294,0.0,0.0,68,0.00,,OVC250,0.00,VWS V14.01,2013-07-27 00:26:00,
2013-07-26 20:32:00,75.6,65.0,29.98,WNW,294,0.0,0.0,70,0.00,,OVC250,0.00,VWS V14.01,2013-07-27 00:32:00,
2013-07-26 20:37:00,75.2,64.6,29.98,WNW,294,0.0,0.0,70,0.00,,OVC250,0.00,VWS V14.01,2013-07-27 00:37:00,
2013-07-26 20:42:00,74.7,64.8,29.98,WNW,294,0.0,0.0,71,0.00,,OVC250,0.00,VWS V14.01,2013-07-27 00:42:00,
2013-07-26 20:47:00,74.3,64.5,29.98,WNW,294,0.0,0.0,71,0.00,,OVC250,0.00,VWS V14.01,2013-07-27 00:47:00,
2013-07-26 20:52:00,74.1,65.0,29.98,WNW,294,0.0,0.0,73,0.00,,OVC250,0.00,VWS V14.01,2013-07-27 00:52:00,
2013-07-26 20:57:00,73.8,65.3,29.98,WNW,294,0.0,0.0,75,0.00,,OVC250,0.00,VWS V14.01,2013-07-27 00:57:00,
2013-07-26 21:02:00,73.6,65.1,29.98,WNW,294,0.0,0.0,75,0.00,,OVC250,0.00,VWS V14.01,2013-07-27 01:02:00,
2013-07-26 21:08:00,73.4,64.9,29.98,WNW,294,0.0,0.0,75,0.00,,OVC250,0.00,VWS V14.01,2013-07-27 01:08:00,
2013-07-26 21:13:00,73.2,65.4,29.98,WNW,294,0.0,0.0,76,0.00,,OVC250,0.00,VWS V14.01,2013-07-27 01:13:00,
2013-07-26 21:18:00,73.0,65.2,29.98,WNW,294,0.0,0.0,76,0.00,,OVC250,0.00,VWS V14.01,2013-07-27 01:18:00,
2013-07-26 21:23:00,73.0,65.8,29.98,WNW,294,0.0,0.0,78,0.00,,OVC250,0.00,VWS V14.01,2013-07-27 01:23:00,
2013-07-26 21:28:00,72.9,65.7,29.98,WNW,294,0.0,0.0,78,0.00,,OVC250,0.00,VWS V14.01,2013-07-27 01:28:00,
2013-07-26 21:33:00,72.7,65.5,29.98,WNW,294,0.0,0.0,78,0.00,,OVC250,0.00,VWS V14.01,2013-07-27 01:33:00,
2013-07-26 21:38:00,72.5,65.9,29.98,WNW,294,0.0,0.0,80,0.00,,OVC250,0.00,VWS V14.01,2013-07-27 01:38:00,
2013-07-26 21:44:00,72.3,65.8,29.98,WNW,294,0.0,0.0,80,0.00,,OVC130,0.00,VWS V14.01,2013-07-27 01:44:00,
2013-07-26 21:49:00,72.3,66.4,29.98,WNW,294,0.0,0.0,82,0.00,,OVC130,0.00,VWS V14.01,2013-07-27 01:49:00,
2013-07-26 21:54:00,72.1,66.2,29.98,WNW,294,0.0,0.0,82,0.00,,OVC130,0.00,VWS V14.01,2013-07-27 01:54:00,
2013-07-26 21:59:00,72.0,66.6,29.98,WNW,294,0.0,0.0,83,0.00,,OVC130,0.00,VWS V14.01,2013-07-27 01:59:00,
2013-07-26 22:04:00,72.0,67.2,29.98,WNW,294,0.0,0.0,85,0.00,,OVC130,0.00,VWS V14.01,2013-07-27 02:04:00,
2013-07-26 22:09:00,71.8,67.0,29.98,WNW,294,0.0,0.0,85,0.00,,OVC130,0.00,VWS V14.01,2013-07-27 02:09:00,
2013-07-26 22:15:00,71.8,67.0,29.98,WNW,294,0.0,0.0,85,0.00,,OVC130,0.00,VWS V14.01,2013-07-27 02:15:00,
2013-07-26 22:20:00,71.6,67.4,29.98,SSW,205,4.4,5.6,87,0.00,,OVC130,0.00,VWS V14.01,2013-07-27 02:20:00,
2013-07-26 22:25:00,71.4,67.8,29.98,South,190,0.0,0.0,88,0.00,,OVC130,0.00,VWS V14.01,2013-07-27 02:25:00,
2013-07-26 22:30:00,71.4,67.8,29.98,South,190,0.0,0.0,88,0.00,,OVC130,0.00,VWS V14.01,2013-07-27 02:30:00,
2013-07-26 22:35:00,71.2,68.2,29.98,South,190,0.0,0.0,90,0.00,,OVC130,0.00,VWS V14.01,2013-07-27 02:35:00,
2013-07-26 22:40:00,71.2,68.7,29.98,South,190,0.0,0.0,92,0.00,,BKN060,0.00,VWS V14.01,2013-07-27 02:40:00,
2013-07-26 22:46:00,71.2,68.7,29.98,South,190,0.0,0.0,92,0.00,,BKN060,0.00,VWS V14.01,2013-07-27 02:46:00,
2013-07-26 22:51:00,71.1,69.1,29.98,South,190,0.0,0.0,94,0.00,,BKN060,0.00,VWS V14.01,2013-07-27 02:51:00,
2013-07-26 22:56:00,70.9,68.9,29.98,South,190,0.0,0.0,94,0.00,,BKN060,0.00,VWS V14.01,2013-07-27 02:56:00,
2013-07-26 23:02:00,70.9,68.9,29.98,South,190,6.6,8.5,94,0.00,,BKN060,0.00,VWS V14.01,2013-07-27 03:02:00,
2013-07-26 23:07:00,70.9,69.4,29.98,South,190,0.0,0.0,95,0.00,,BKN060,0.00,VWS V14.01,2013-07-27 03:07:00,
2013-07-26 23:12:00,70.7,69.3,29.98,South,190,0.0,0.0,95,0.00,,BKN060,0.00,VWS V14.01,2013-07-27 03:12:00,
2013-07-26 23:17:00,70.5,69.1,29.98,South,190,3.7,4.7,95,0.00,,BKN060,0.00,VWS V14.01,2013-07-27 03:17:00,
2013-07-26 23:22:00,70.5,69.1,29.98,SW,216,4.4,5.6,95,0.00,,BKN060,0.00,VWS V14.01,2013-07-27 03:22:00,
2013-07-26 23:27:00,70.3,68.9,29.98,SW,216,0.0,0.0,95,0.00,,BKN060,0.00,VWS V14.01,2013-07-27 03:27:00,
2013-07-26 23:32:00,70.3,68.9,29.98,SW,216,0.0,0.0,95,0.00,,BKN060,0.00,VWS V14.01,2013-07-27 03:32:00,
2013-07-26 23:37:00,70.3,68.9,29.98,SW,216,3.7,4.7,95,0.00,,BKN060,0.00,VWS V14.01,2013-07-27 03:37:00,
2013-07-26 23:43:00,70.3,68.9,29.98,SSW,194,5.9,7.5,95,0.00,,OVC100,0.00,VWS V14.01,2013-07-27 03:43:00,
2013-07-26 23:48:00,70.3,68.4,29.98,WSW,246,4.4,7.5,94,0.00,,OVC100,0.00,VWS V14.01,2013-07-27 03:48:00,
2013-07-26 23:53:00,70.2,68.2,29.98,SW,230,5.2,6.6,94,0.00,,OVC100,0.00,VWS V14.01,2013-07-27 03:53:00,
2013-07-26 23:58:00,70.2,68.2,29.98,SW,228,8.1,12.2,94,0.00,,OVC100,0.00,VWS V14.01,2013-07-27 03:58:00,